Probability
0 0 0 0 0 0 0 0 0 0 0 0 0 0 0 1 2 3 3 4 5 5 3 1 0 0 0 0 0 0 1 0 0 0 0 0 0 0 0 0 0 0 0
0 0 0 0 0 0 0 0 0 0 0 0 0 0 0 0 1 2 3 3 4 4 4 3 1 0 0 0 0 0 1 1 1 0 0 0 0 0 0 0 0 0 0
0 0 0 0 0 0 0 0 0 0 0 0 0 0 0 0 0 1 2 3 3 3 4 5 3 1 0 0 0 0 1 2 2 1 1 0 0 0 0 0 0 0 0
0 0 0 0 0 0 0 0 0 0 0 0 0 0 0 0 0 0 1 2 3 3 4 5 4 3 1 0 0 0 1 2 3 3 2 1 0 0 0 0 0 0 0
0 0 0 0 0 0 0 0 0 0 0 0 0 0 0 0 0 0 0 1 2 3 3 4 4 3 1 0 0 0 1 2 3 3 3 2 1 0 0 0 0 0 0
0 0 0 0 0 0 0 0 0 0 0 0 0 0 0 0 0 0 0 0 1 3 3 3 3 1 1 0 0 0 0 1 1 2 2 2 1 0 0 0 0 0 0
0 0 0 0 0 0 0 0 0 0 0 0 0 0 0 0 0 0 0 0 1 2 2 2 2 1 0 0 0 0 0 0 0 1 1 1 0 0 0 0 0 0 0
0 0 0 0 0 0 0 0 0 0 0 0 0 0 0 0 0 0 0 0 0 1 1 1 1 0 0 0 0 0 0 0 0 0 0 0 0 0 0 0 0 0 0
0 0 0 0 0 0 0 0 0 0 0 0 0 0 0 0 0 0 0 0 0 0 0 0 0 0 0 0 0 0 0 0 0 0 0 0 0 0 0 0 0 0 0
0 0 0 0 0 0 0 0 0 0 0 0 0 0 0 0 0 0 0 0 0 0 0 0 0 0 0 0 0 0 0 0 0 0 0 0 0 0 0 0 0 0 0
0 0 0 0 0 0 0 0 0 0 0 0 0 0 0 0 0 0 0 0 0 0 0 0 0 0 0 0 0 0 0 0 0 0 0 0 0 0 0 0 0 0 0
0 0 0 0 0 0 0 0 0 0 0 0 0 0 0 0 0 0 0 0 0 0 0 0 0 0 0 0 0 0 0 0 0 0 0 0 0 0 0 0 0 0 0
0 0 0 0 0 0 0 0 0 0 0 0 0 0 0 0 0 0 0 0 0 0 0 0 0 0 0 0 0 0 0 0 0 0 0 0 0 0 0 0 0 0 0
0 0 0 0 0 0 0 0 0 0 0 0 0 0 0 0 0 0 0 0 0 0 0 0 0 0 0 0 0 0 0 0 0 0 0 0 0 0 0 0 0 0 0
0 0 0 0 0 0 0 0 0 0 0 0 0 0 0 0 0 0 0 0 0 0 0 0 0 0 0 0 0 0 0 0 0 0 0 0 0 0 0 0 0 0 0
0 0 0 0 0 0 0 0 0 0 0 0 0 0 0 0 0 0 0 0 0 0 0 0 0 0 0 0 0 0 0 0 0 0 0 0 0 0 0 0 0 0 0
0 0 0 0 0 0 0 0 0 0 0 0 0 0 0 0 0 0 0 0 0 0 0 0 0 0 0 0 0 0 0 0 0 0 0 0 0 0 0 0 0 0 0
0 0 0 0 0 0 0 0 0 0 0 0 0 0 0 0 0 0 0 0 0 0 0 0 0 0 0 0 0 0 0 0 0 0 0 0 0 0 0 0 0 0 0
0 0 0 0 0 0 0 0 0 0 0 0 0 0 0 0 0 0 0 0 0 0 0 0 0 0 0 0 0 0 0 0 0 0 0 0 0 0 0 0 0 0 0
0 0 0 0 0 0 0 0 0 0 0 0 0 0 0 0 0 0 0 0 0 0 0 0 0 0 0 0 0 0 0 0 0 0 0 0 0 0 0 0 0 0 0
0 0 0 0 0 0 0 0 0 0 0 0 0 0 0 0 0 0 0 0 0 0 0 0 0 0 0 0 0 0 0 0 0 0 0 0 0 0 0 0 0 0 0
0 0 0 0 0 0 0 0 0 0 0 0 0 0 0 0 0 0 0 0 0 0 0 0 0 0 0 0 0 0 0 0 0 0 0 0 0 0 0 0 0 0 0
0 0 0 0 0 0 0 0 0 0 0 0 0 0 0 0 0 0 0 0 0 0 0 0 0 0 0 0 0 0 0 0 0 0 0 0 0 0 0 0 0 0 0
0 0 0 0 0 0 0 0 0 0 0 0 0 0 0 0 0 0 0 0 0 0 0 0 0 0 0 0 0 0 0 0 0 0 0 0 0 0 0 0 0 0 0
0 0 0 0 0 0 0 0 0 0 0 0 0 0 0 0 0 0 0 0 0 0 0 0 0 0 0 0 0 0 0 0 0 0 0 0 0 0 0 0 0 0 0
0 0 0 0 0 0 0 0 0 0 0 0 0 0 0 0 0 0 0 0 0 0 0 0 0 0 0 0 0 0 0 0 0 0 0 0 0 0 0 0 0 0 0
Wind_Speed
1 0 1 1 2 2 2 3 3 3 4 5 5 6 7 8 8 9 10 9 11 11 10 11 12 10 9 8 8 9 10 10 15 11 6 6 7 8 7 8 8 9 9
1 1 0 0 0 0 1 2 3 4 4 5 5 5 6 7 7 8 10 10 10 11 11 11 12 9 11 9 9 10 10 10 12 15 9 6 9 8 8 8 7 7 8
2 1 1 1 1 1 2 2 3 3 3 3 4 5 6 7 7 8 9 10 10 11 11 12 12 11 12 10 10 10 9 9 10 12 12 7 6 5 6 6 6 6 6
2 2 2 2 2 2 2 3 3 3 4 4 4 5 6 7 7 7 8 9 10 11 11 11 11 11 12 11 10 11 9 10 10 11 11 8 6 4 4 5 6 6 7
2 2 2 3 3 3 3 4 4 4 4 4 5 5 5 5 5 6 7 9 10 10 10 11 11 12 14 12 10 9 9 10 9 9 10 8 7 4 6 5 7 6 6
2 2 3 3 3 4 4 4 4 4 4 4 5 5 6 5 7 9 8 8 9 10 10 10 10 11 12 14 15 15 14 13 12 11 10 11 10 9 7 6 6 5 7
3 3 3 3 3 3 4 4 4 5 5 5 5 6 7 8 9 10 10 9 9 9 9 9 8 7 9 10 12 14 15 17 18 14 14 13 11 9 8 8 8 8 9
3 3 4 4 4 4 4 4 5 5 5 5 5 6 7 8 10 11 11 8 9 9 8 8 9 9 8 9 10 11 12 12 13 13 14 13 11 9 9 10 10 8 5
3 3 4 4 4 5 5 5 5 5 5 5 5 6 7 8 11 12 11 7 7 8 8 8 8 9 10 10 10 11 11 10 9 12 13 13 13 12 9 5 5 5 6
3 3 3 3 4 4 5 5 5 5 5 6 6 6 7 8 11 12 11 6 7 7 7 6 8 10 11 10 9 9 11 10 7 7 8 10 10 9 9 8 7 6 5
3 3 4 4 4 4 5 5 5 5 5 5 6 6 5 6 10 12 12 6 7 7 7 6 6 10 12 11 10 9 11 10 7 7 7 7 6 5 5 5 6 6 7
3 3 4 4 4 3 4 4 5 5 5 6 6 6 4 5 7 9 12 11 10 8 7 7 7 12 13 13 10 10 11 9 5 5 6 6 6 5 5 4 4 4 4
3 3 3 4 3 3 4 4 4 4 4 5 5 6 6 5 6 10 11 12 12 8 7 11 12 14 13 10 9 10 7 4 4 5 6 7 5 4 3 2 1 1 1
2 3 3 3 4 3 3 3 3 4 4 5 5 6 7 6 5 6 6 7 8 8 7 9 11 11 9 8 7 6 4 4 4 5 6 5 4 3 3 2 2 1 1
1 3 3 3 3 4 4 3 4 4 4 5 5 5 6 7 8 13 10 8 7 7 9 7 6 6 6 5 4 4 4 4 4 4 4 5 4 3 3 2 2 2 2
1 2 2 3 3 3 4 5 6 6 9 9 9 9 7 10 15 15 15 15 14 13 8 6 6 6 6 6 6 6 5 5 5 5 5 4 4 4 3 2 2 3 3
1 2 2 3 3 3 4 4 6 7 8 9 11 12 12 14 15 15 15 15 13 10 5 5 5 6 6 6 6 6 6 6 5 5 5 5 4 4 4 3 3 3 3
1 2 2 2 3 3 3 4 4 5 7 7 8 12 14 14 15 15 15 11 7 6 4 5 6 6 6 6 6 6 6 6 5 5 5 5 4 4 4 4 3 4 3
1 1 2 2 2 3 3 4 4 4 5 6 6 8 10 12 12 13 11 5 5 5 5 5 6 6 6 6 6 6 6 6 6 6 5 5 5 4 4 4 4 4 3
1 2 2 2 2 3 3 3 4 4 5 5 6 6 6 6 5 7 5 4 4 5 6 6 6 6 6 6 6 6 6 6 6 6 6 5 5 4 5 4 4 3 3
1 2 2 2 2 3 3 3 4 4 4 5 5 7 9 5 5 6 5 5 4 5 6 6 6 6 6 5 5 6 7 6 6 6 6 5 5 4 4 4 3 3 3
1 2 2 2 2 3 3 4 4 4 5 6 6 6 9 5 5 5 5 5 5 5 5 5 6 6 5 5 6 6 6 6 6 6 6 6 5 4 3 3 3 2 3
2 2 2 2 3 4 4 4 4 4 5 5 5 5 5 4 5 5 6 6 5 5 5 4 5 6 5 5 5 6 6 7 6 7 6 5 4 3 3 3 3 3 3
2 2 3 3 3 3 4 4 4 4 5 5 5 5 5 5 5 6 6 5 5 5 5 5 5 7 9 8 6 5 6 7 7 6 6 5 4 3 2 2 2 3 3
2 3 3 3 4 4 4 4 4 5 5 5 5 5 5 5 5 5 5 5 6 6 6 6 5 6 8 10 9 8 9 10 9 6 5 3 3 3 2 2 2 2 3
3 3 3 3 4 4 4 5 5 5 5 5 5 5 5 5 5 5 5 5 5 5 6 6 7 8 10 8 9 10 10 10 10 8 4 2 2 2 1 1 2 2 4
Wind_Direction
20 354 199 216 217 216 229 245 252 257 255 253 253 250 248 247 244 243 245 244 244 246 244 244 246 244 244 241 237 237 239 242 260 268 244 230 221 227 230 228 230 231 231
25 56 55 30 91 220 259 272 273 269 266 264 264 262 259 256 252 248 250 248 247 248 248 246 248 246 245 245 242 242 243 240 252 266 264 240 232 229 230 227 227 228 231
44 63 49 26 13 327 306 308 309 302 299 296 285 274 271 266 261 256 254 253 251 251 250 249 250 246 248 246 244 246 245 245 245 258 265 254 245 231 232 235 232 232 230
47 56 46 18 360 340 331 328 321 314 307 302 295 287 282 277 271 267 264 262 259 257 254 252 251 248 249 250 249 248 249 249 247 252 259 258 250 237 223 234 245 234 236
53 50 25 7 5 1 353 341 331 326 317 309 303 298 294 286 285 288 280 273 268 266 261 256 253 251 250 250 251 251 249 251 250 252 256 257 249 232 231 224 240 245 242
49 37 19 14 12 5 350 338 333 328 320 315 308 302 298 294 300 297 292 284 276 271 271 268 263 252 253 250 249 249 246 248 251 251 253 252 252 241 236 227 234 240 252
45 29 15 7 3 354 347 345 339 331 325 318 311 306 297 294 303 300 292 283 279 275 273 275 274 269 260 258 255 252 249 247 245 249 256 254 253 243 234 234 230 231 242
39 24 12 4 356 353 352 347 339 331 324 317 315 311 306 306 316 317 309 284 278 279 278 278 279 279 271 268 267 263 258 253 248 247 254 259 258 251 235 236 236 236 247
25 11 359 354 351 349 347 343 337 332 328 322 319 319 316 315 322 321 320 300 288 286 283 280 278 280 281 277 272 272 273 271 264 252 255 258 258 253 243 235 228 224 243
354 347 347 351 347 342 338 334 332 330 324 322 318 318 314 312 320 323 323 309 303 302 299 291 283 285 291 286 276 276 277 279 282 285 274 271 266 258 241 234 226 228 238
344 348 350 349 346 342 338 334 329 326 323 323 318 316 314 313 320 326 326 318 310 307 305 304 303 306 304 301 292 281 278 284 284 279 277 276 272 265 254 244 235 231 232
351 350 349 348 346 348 340 333 331 328 325 325 324 322 322 322 323 327 329 324 319 307 303 305 306 309 307 305 299 294 294 291 285 282 280 277 275 273 269 254 241 239 244
354 346 339 339 344 346 338 333 333 331 326 326 328 325 325 327 322 325 325 325 324 313 305 305 307 310 309 306 301 299 297 292 285 280 276 276 280 279 276 272 281 234 255
345 334 333 338 341 343 338 333 329 327 326 324 324 321 320 320 321 327 325 324 323 317 313 312 310 309 306 303 307 307 299 289 279 278 282 285 289 284 274 267 251 232 243
344 340 338 343 337 333 335 326 319 308 308 308 305 305 310 313 321 326 328 323 322 318 319 316 319 323 322 319 316 312 308 304 295 291 283 282 282 278 278 273 249 233 229
343 346 335 332 331 332 331 326 323 314 318 316 312 310 306 312 318 323 324 323 323 325 324 316 317 317 315 316 315 313 310 302 297 294 288 283 281 277 276 272 251 234 232
319 327 328 329 328 329 330 327 323 325 325 327 330 332 329 327 329 330 330 329 329 336 330 315 312 312 312 312 310 309 307 303 297 290 287 286 284 279 271 266 257 242 233
328 322 317 313 312 311 311 310 310 315 320 320 328 333 334 334 335 337 339 340 337 346 330 317 313 312 312 311 310 308 307 307 301 293 289 287 281 274 268 258 250 241 230
318 314 310 302 300 300 304 305 304 305 305 308 317 327 335 334 335 341 348 346 327 325 322 317 313 311 309 307 306 306 304 303 300 294 287 280 276 270 265 259 251 234 223
305 309 304 300 303 303 302 301 301 302 303 306 310 316 327 334 335 335 341 330 321 316 316 313 312 309 308 306 306 306 304 302 302 297 289 282 275 270 266 260 251 235 222
298 303 301 296 290 289 290 289 289 291 293 294 296 308 326 325 318 317 318 316 311 309 310 309 308 307 307 306 307 305 303 301 300 298 295 286 274 270 269 264 261 242 208
272 277 281 279 283 286 286 285 283 284 289 293 299 310 323 318 309 307 305 304 302 300 300 302 302 301 301 303 303 301 300 300 299 298 295 292 283 267 256 248 247 234 190
263 272 278 277 276 281 283 281 282 286 287 288 294 301 306 302 299 298 299 302 306 307 307 305 303 305 307 303 299 296 295 295 295 293 291 289 286 279 260 239 223 202 185
257 265 273 279 277 276 280 284 284 284 286 289 291 292 293 294 294 297 299 303 307 306 306 308 305 304 308 311 308 304 297 298 302 295 286 282 284 279 267 242 215 184 176
258 263 269 274 277 278 281 282 282 283 283 284 285 288 290 290 291 295 298 301 305 306 309 311 308 308 311 312 311 309 309 312 313 308 297 286 283 278 260 232 197 169 161
260 264 268 270 271 272 273 276 279 280 281 281 280 281 284 287 289 292 296 299 305 308 310 310 309 311 312 312 312 318 321 323 324 324 321 302 288 286 275 227 179 169 161